This is the latest recevied weather packets stored in our database for station/object K1ADM. If no packets are shown the sender has not sent any weather packets the latest 10 day(s).
| Time | Temp. | Humidity | Pressure | Rain* | Wind** | Luminosity | Snow |
|---|---|---|---|---|---|---|---|
| 1777458303 | 8.33° C | 73% | 1016.9 hPa | 0 mm | - | - | - |
| 1777453203 | 8.89° C | 62% | 1017.9 hPa | 0 mm | - | - | - |
| 1777450204 | 8.89° C | 62% | 1018.5 hPa | 0 mm | - | - | - |
| 1777448103 | 8.89° C | 61% | 1018.2 hPa | 0 mm | - | - | - |
| 1777446903 | 8.89° C | 60% | 1018.2 hPa | 0 mm | - | - | - |
| 1777446003 | 8.89° C | 59% | 1018.4 hPa | 0 mm | - | - | - |
| 1777442403 | 8.89° C | 55% | 1018.3 hPa | 0 mm | - | - | - |
| 1777441503 | 8.89° C | 55% | 1018 hPa | 0 mm | - | - | - |
| 1777441203 | 8.89° C | 55% | 1018 hPa | 0 mm | - | - | - |
| 1777437004 | 8.89° C | 51% | 1018.7 hPa | 0 mm | - | - | - |
| 1777432803 | 7.78° C | 51% | 1019.6 hPa | 0 mm | - | - | - |
| 1777432503 | 7.78° C | 49% | 1019.6 hPa | 0 mm | - | - | - |
| 1777429504 | 8.33° C | 49% | 1019.9 hPa | 0 mm | - | - | - |
| 1777428604 | 8.89° C | 49% | 1020 hPa | 0 mm | - | - | - |
| 1777423802 | 9.44° C | 50% | 1020.1 hPa | 0 mm | - | - | - |
| 1777422902 | 10° C | 49% | 1020.2 hPa | 0 mm | - | - | - |
| 1777418702 | 11.67° C | 42% | 1020.5 hPa | 0 mm | - | - | - |
| 1777416602 | 12.78° C | 23% | 1020.3 hPa | 0 mm | - | - | - |
| 1777415702 | 13.33° C | 22% | 1020.2 hPa | 0 mm | - | - | - |
| 1777414802 | 14.44° C | 25% | 1020.3 hPa | 0 mm | - | - | - |
| 1777413902 | 15° C | 25% | 1020.2 hPa | 0 mm | - | - | - |
| 1777403702 | 18.89° C | 36% | 1020.4 hPa | 0 mm | - | - | - |
| 1777403402 | 18.89° C | 38% | 1020.3 hPa | 0 mm | - | - | - |
| 1777403102 | 18.89° C | 37% | 1020.3 hPa | 0 mm | - | - | - |
| 1777402802 | 18.89° C | 37% | 1020.4 hPa | 0 mm | - | - | - |
* Rain latest hour (hover to see other rain measurements)
** Current wind speed in m/s (hover to see current wind gust speed)